Location: Nandig?ma
(16.7717°N, 80.2860°E)
Time: 20:21:58
(UTC+00:00)

SL-16 R/B - Pass Details

Date: 03 August 2024
Orbit: 985 x 1006 km, 99.7° (Epoch: 18 September)

Event Time Altitude Azimuth Distance (km) Brightness Sun altitude
Exits shadow 21:43:33 50° 10° (N) 1,233 3.1 -34.4°
Drops below altitude 10° 21:48:03 10° 352° (N) 2,738 5.1 -33.6°
Sets 21:50:31 0° 351° (N) 3,687 5.8 -33.1°
